Location: Unspecified
(0.0000°N, 0.0000°E)
Time: 14:02:14
(UTC+00:00)

N. Korean satellite - Pass Details

Date: 13 November 2017
Orbit: 460 x 515 km, 97.2° (Epoch: 18 November)

Event Time Altitude Azimuth Distance (km) Brightness Sun altitude
Rises 19:16:18 0° 204° (SSW) 2,490 10.8 -21.8°
Reaches altitude 10° 19:19:40 10° 240° (WSW) 1,605 10.3 -22.6°
Maximum altitude 19:20:45 11° 259° (WSW) 1,530 10.1 -22.8°
Drops below altitude 10° 19:21:49 10° 277° (W) 1,601 10.0 -23.1°
Sets 19:25:10 0° 313° (NW) 2,470 10.5 -23.9°
